Wind_Speed
3 3 6 11 6 6 2 4 5 6 7 2 7 9 15 18 17 14 11 12 15 16 18 26 27 29 27 27 27 31 34 32 28 25 19 15 13 12 10 10 9 8 8 6
4 7 8 10 7 6 5 4 6 3 4 0 5 5 8 10 17 16 15 14 14 10 9 13 22 25 29 30 32 32 32 32 31 27 19 8 11 8 8 9 12 11 9 7
7 6 4 1 3 1 3 5 4 3 4 1 3 5 6 7 7 8 6 10 13 15 16 12 16 25 30 33 37 37 36 33 31 26 18 10 10 6 5 10 8 8 6 8
6 4 7 4 4 6 7 4 8 7 5 7 4 6 5 7 9 10 13 9 15 14 16 14 17 22 28 33 36 39 36 32 30 25 18 16 14 11 11 10 6 3 3 5
9 2 4 4 7 5 12 3 11 14 6 5 1 2 8 0 8 9 15 16 12 16 16 15 17 28 29 32 35 31 33 32 32 26 20 17 14 13 10 12 6 2 1 2
7 3 2 7 2 6 5 4 5 5 5 1 7 9 6 5 16 6 13 17 13 12 16 15 20 22 21 28 26 28 27 28 29 27 21 15 17 14 14 14 8 3 4 5
6 6 4 4 5 2 3 6 3 3 1 5 4 7 14 5 8 11 17 14 9 10 13 14 14 15 21 26 28 26 24 25 24 25 23 18 15 12 13 14 10 10 8 7
4 8 7 4 7 8 5 8 5 5 4 5 6 6 7 5 8 6 3 8 7 8 12 17 18 22 23 27 24 21 25 22 21 22 20 16 12 12 13 13 12 10 8 6
6 7 6 4 4 7 1 3 5 6 4 2 3 7 9 2 7 4 6 6 7 8 12 16 14 22 22 26 27 21 22 22 20 20 19 17 15 13 13 13 13 12 8 7
7 4 7 7 4 2 7 5 2 3 3 4 4 4 6 6 9 9 8 11 11 8 9 11 13 19 21 26 28 23 25 27 24 22 20 19 17 17 16 15 13 9 7 5
5 5 8 2 4 7 3 1 3 5 5 6 4 7 9 10 14 14 14 11 10 12 8 11 12 19 24 27 29 29 29 27 25 23 22 21 20 18 16 13 11 10 8 6
4 5 6 13 5 4 6 8 7 5 6 3 3 7 5 12 7 6 8 8 8 11 10 10 13 23 26 27 28 31 31 30 27 26 26 24 22 19 17 15 13 10 10 10
3 2 2 9 4 3 5 5 5 3 3 8 6 7 5 6 6 6 8 7 8 13 14 12 13 14 21 25 28 29 31 30 30 30 30 27 24 22 19 17 15 13 12 11
3 1 4 7 8 4 5 4 5 5 3 4 7 10 7 8 8 7 7 6 9 15 18 16 15 15 22 26 28 28 28 33 34 33 30 28 26 22 19 17 16 14 12 10
4 2 5 6 6 5 5 5 6 6 6 5 5 9 10 12 13 16 9 9 13 14 16 17 16 15 21 23 26 27 30 33 34 31 29 28 25 21 20 19 16 14 11 9
5 4 5 6 3 6 6 6 6 4 4 5 3 7 6 5 7 6 11 16 17 16 16 16 15 17 19 26 28 30 34 35 34 31 30 29 26 23 20 19 16 15 15 13
1 2 4 6 3 6 2 7 5 4 8 3 4 6 8 8 8 12 11 15 17 19 19 19 19 18 25 27 31 31 35 36 33 32 32 30 27 24 21 19 18 17 15 13
4 3 2 4 6 1 5 8 5 12 8 7 5 8 12 15 13 7 13 19 16 17 18 17 15 17 19 23 24 29 36 36 36 35 33 31 28 25 22 21 19 17 14 12
6 4 1 2 3 6 5 8 5 5 3 7 11 15 16 12 3 3 9 15 21 16 12 13 22 24 26 26 22 24 22 27 33 33 32 29 28 26 25 23 21 17 14 12
4 3 5 3 2 3 3 10 3 6 3 12 13 13 14 11 1 5 4 2 11 16 23 26 30 32 33 33 38 32 23 25 27 34 31 28 27 26 26 23 20 17 14 11
4 3 4 4 4 6 4 10 7 6 6 15 11 14 12 5 5 7 5 11 17 20 28 34 36 34 35 44 47 35 28 28 31 30 28 27 25 25 23 21 19 16 13 10
4 1 2 1 3 2 8 5 7 6 6 6 9 6 8 8 11 5 6 16 21 23 27 33 30 31 36 36 35 35 30 31 31 29 28 27 23 23 23 22 18 14 13 10
1 4 3 4 4 3 3 2 3 5 5 6 6 8 6 6 6 4 7 12 15 19 23 29 28 27 27 27 27 30 30 34 33 31 30 26 24 24 22 20 17 15 13 12
2 3 3 3 4 6 5 3 4 5 7 10 8 7 4 4 9 8 5 10 11 15 17 18 23 21 22 28 32 35 38 37 34 31 29 27 25 23 21 17 16 15 16 15
4 5 3 4 7 7 4 6 5 7 11 8 10 7 1 3 2 10 6 4 5 2 7 17 20 23 22 23 22 33 38 37 35 31 30 30 26 23 20 17 17 17 17 13
4 6 4 6 7 5 7 7 3 6 2 8 10 8 3 5 4 4 11 4 5 5 6 12 20 23 25 28 28 27 31 34 33 30 31 31 27 23 19 16 16 18 16 14
Wind_Direction
358 120 172 222 198 220 193 173 225 271 169 144 188 157 177 193 210 215 210 213 205 212 214 210 197 207 207 208 210 210 204 206 198 196 195 201 204 215 239 253 251 253 260 238
10 235 218 157 202 234 212 189 244 307 110 131 176 205 206 194 211 211 213 216 217 207 197 190 178 188 202 202 207 204 203 203 198 198 192 199 204 221 246 257 261 262 266 265
189 215 104 191 125 278 262 231 210 200 137 44 110 282 219 234 229 232 236 231 226 203 193 181 179 184 191 203 213 208 208 203 198 193 186 177 165 166 247 258 270 283 279 273
242 223 231 275 269 142 285 214 252 181 151 220 154 267 265 207 234 230 224 219 219 205 198 180 179 183 192 200 213 209 209 203 201 195 194 192 179 189 216 264 251 260 269 290
242 255 195 172 228 153 250 231 252 197 152 109 204 68 272 344 252 223 222 225 219 196 191 180 186 186 190 194 200 202 204 201 199 196 199 196 193 204 208 225 230 230 213 273
243 289 177 217 243 179 265 291 14 38 121 117 228 179 280 196 228 217 226 223 208 206 193 184 187 172 175 192 197 197 193 195 198 196 204 209 208 212 227 239 227 220 184 169
309 256 250 211 300 93 115 63 311 7 94 208 223 138 238 259 227 202 216 214 184 195 190 173 175 164 160 171 184 187 186 189 195 202 209 214 204 214 237 235 219 202 161 136
186 300 183 197 184 211 201 161 161 230 219 246 155 229 248 192 256 224 245 214 158 196 183 182 180 173 171 172 178 186 193 196 194 199 203 196 196 198 206 205 196 179 159 146
166 266 286 181 161 119 285 206 203 105 8 80 241 293 308 226 245 212 189 175 202 201 191 185 174 175 168 167 179 182 184 189 181 178 173 172 174 174 175 166 161 153 145 136
227 255 215 257 144 243 158 177 316 2 178 235 280 272 238 269 223 207 198 213 221 182 186 179 172 168 160 164 171 174 181 176 166 163 162 159 158 159 152 148 150 150 142 142
153 138 275 44 179 226 293 226 79 133 138 177 210 258 218 226 232 195 206 195 189 194 179 170 173 165 153 157 162 167 171 167 166 166 164 155 151 151 149 154 150 145 143 144
225 174 210 223 239 202 169 210 157 135 259 185 171 268 230 222 245 166 208 187 188 188 166 168 166 154 151 155 159 159 165 166 168 165 158 153 149 149 149 147 147 147 144 136
305 290 336 321 351 342 194 190 161 137 78 197 160 256 315 296 189 177 181 205 176 167 152 153 159 152 154 157 156 158 162 164 166 165 159 154 150 151 148 148 150 148 145 136
138 128 175 214 213 178 162 213 171 124 112 197 214 245 255 257 219 192 184 191 157 169 164 158 160 156 157 156 151 151 155 164 164 164 155 153 151 150 147 146 145 141 142 138
51 41 339 296 264 272 185 207 167 181 191 165 261 202 240 241 196 206 163 152 163 169 165 169 164 158 154 150 147 147 154 159 163 158 153 153 151 149 148 149 149 144 144 138
350 309 10 299 338 240 269 225 216 187 163 246 255 265 257 331 109 153 190 169 178 178 175 171 165 158 155 154 151 151 157 162 164 158 157 155 154 153 153 153 150 142 132 121
133 40 29 284 330 256 288 228 186 99 41 335 17 281 314 273 202 194 187 191 192 183 176 172 171 168 163 154 152 153 157 163 163 162 161 159 158 158 159 158 158 154 150 143
196 135 146 257 325 11 243 337 353 98 70 16 294 297 308 274 243 240 202 188 187 186 180 174 162 137 135 147 145 152 160 164 162 162 165 162 161 159 163 163 165 164 167 166
187 128 186 161 256 288 18 7 343 29 337 6 330 324 323 327 56 259 190 200 194 179 143 132 138 130 127 132 142 151 153 160 159 162 167 169 166 164 168 170 168 169 169 172
64 29 143 152 253 255 225 304 245 204 229 342 340 318 322 335 147 252 277 178 128 134 142 140 135 131 135 148 159 161 170 168 169 170 173 172 171 171 173 176 172 173 179 188
340 7 203 170 201 285 296 314 347 67 265 317 317 308 308 308 238 289 161 136 141 145 144 140 145 153 155 165 169 163 172 176 180 173 174 172 174 177 178 179 176 178 190 211
151 117 294 316 168 222 338 352 96 217 290 266 301 295 291 276 269 194 152 147 146 150 150 151 150 158 170 173 171 149 170 179 180 171 173 173 176 181 181 184 180 188 201 208
242 173 195 179 237 269 321 312 196 169 262 299 305 300 309 1 37 20 137 140 144 147 152 159 154 157 169 171 174 145 169 180 175 172 174 175 180 186 188 189 184 191 204 213
281 185 186 26 269 241 284 245 230 211 236 282 292 291 359 36 97 75 86 126 146 167 162 150 147 159 158 167 170 169 175 174 172 172 174 178 183 189 192 194 199 209 212 222
225 146 197 255 281 287 259 225 209 233 253 274 284 285 264 154 106 118 100 53 354 298 170 151 156 157 164 157 158 173 174 173 171 172 179 183 186 191 191 202 202 211 223 236
203 224 191 240 240 217 261 273 230 240 215 268 278 290 218 170 199 149 130 127 91 106 142 133 142 143 146 152 159 170 176 176 171 171 179 184 187 191 198 210 214 227 239 244
Height
736 756 774 759 757 753 758 770 769 758 744 757 764 768 762 755 755 759 761 760 758 755 750 755 762 767 771 775 778 781 785 788 795 796 799 802 803 805 805 806 807 807 807 807
751 765 744 747 752 756 759 767 771 754 747 752 765 766 759 754 747 748 749 751 752 752 751 753 759 763 769 770 773 780 784 788 792 796 798 801 802 804 805 805 806 806 806 808
760 747 733 740 750 755 758 762 765 762 755 756 763 773 767 752 750 745 745 743 743 744 746 751 756 760 764 768 771 776 780 786 789 793 795 798 800 800 802 803 805 806 806 807
750 734 737 744 751 751 772 741 745 754 767 791 760 803 769 762 756 750 743 742 736 739 740 745 752 757 761 763 768 773 777 782 787 791 795 796 797 798 800 802 804 803 806 805
752 736 739 747 744 740 753 735 741 743 769 774 780 799 775 756 754 746 737 734 732 730 736 741 743 749 755 762 766 771 775 779 783 788 792 796 797 797 800 803 804 803 804 805
743 726 730 735 727 733 728 742 751 756 768 798 774 781 781 768 740 736 728 723 726 729 730 735 741 748 754 759 763 768 775 778 782 786 790 793 795 796 799 802 804 803 805 806
748 741 726 722 737 733 737 769 801 800 802 795 769 788 758 733 724 718 715 717 723 725 729 735 741 746 751 755 760 766 771 776 780 785 788 791 793 796 797 799 803 804 807 809
777 778 736 719 732 743 748 763 798 805 807 790 790 787 750 723 712 709 708 711 716 722 725 728 732 740 745 751 758 763 767 774 777 782 786 789 792 795 798 800 802 805 808 809
779 769 725 720 717 725 743 762 747 786 792 792 780 758 726 720 718 714 715 715 718 718 721 723 730 736 742 747 755 761 765 774 776 782 785 788 791 795 798 800 803 805 808 809
741 764 732 718 715 720 733 733 765 785 791 796 788 778 763 727 721 718 719 714 712 715 721 723 729 735 741 747 753 759 766 772 777 781 785 788 790 795 797 800 804 806 808 809
737 750 737 724 735 741 743 750 755 770 783 797 800 781 729 719 705 710 706 706 709 710 715 719 727 733 738 745 752 758 766 772 777 781 784 787 792 796 799 802 805 807 809 810
729 749 758 742 718 713 724 732 747 780 776 786 785 768 701 699 696 700 703 703 703 704 713 717 724 726 733 742 750 756 764 770 776 781 785 788 792 797 801 804 805 807 809 812
727 751 768 753 735 722 723 727 735 752 763 778 778 763 700 702 697 696 699 700 702 704 710 718 725 725 732 740 746 753 761 769 777 781 784 788 792 797 801 803 805 808 809 811
728 754 753 764 749 729 727 721 727 738 769 760 757 729 707 700 702 696 694 693 700 703 706 713 720 723 730 737 743 752 761 769 775 780 783 788 792 797 801 806 808 809 811 812
737 753 743 736 733 721 715 714 718 725 728 738 721 730 707 694 693 684 684 694 699 704 708 710 713 719 728 737 743 752 761 770 774 779 783 788 792 797 800 804 807 809 811 813
741 750 749 746 725 727 724 711 710 710 715 722 716 722 691 683 683 687 680 684 691 696 701 706 712 718 724 732 739 749 757 765 771 776 781 785 790 795 800 803 806 809 810 812
745 752 760 761 739 735 736 714 700 703 713 711 726 707 696 689 684 681 682 682 683 687 691 698 706 713 723 734 738 744 752 762 770 775 779 783 788 794 800 804 807 808 810 813
743 750 763 764 751 752 723 706 701 713 714 713 710 701 692 684 670 666 664 668 677 683 689 695 706 724 733 737 744 749 752 759 763 773 779 780 784 791 798 802 807 808 810 811
732 749 755 764 769 738 716 717 724 724 719 710 709 697 686 678 669 669 666 664 661 671 690 703 712 721 730 739 750 759 763 768 767 772 777 780 783 788 794 800 804 808 809 812
742 740 752 767 757 756 725 711 705 710 735 704 706 702 697 688 696 676 667 667 670 678 686 695 707 717 725 735 742 756 766 769 769 768 773 778 783 787 793 799 801 806 809 812
750 754 752 755 753 742 714 704 696 743 743 707 704 702 699 697 686 671 665 665 670 677 684 691 700 708 718 725 729 735 754 760 767 768 775 779 783 788 794 799 800 804 807 810
752 760 761 754 749 744 713 705 728 726 714 709 701 697 697 690 677 669 669 667 666 675 678 688 697 707 714 722 724 721 746 756 764 766 774 778 784 790 792 796 797 801 806 807
753 747 755 751 745 725 718 716 712 713 719 709 702 693 691 689 682 678 677 675 678 682 687 690 695 707 716 723 733 727 742 755 759 766 772 777 783 788 792 795 795 800 805 805
739 743 746 742 733 726 717 713 711 708 713 707 700 693 687 688 682 686 686 686 690 690 691 694 699 710 717 723 725 728 741 748 757 763 770 776 782 788 792 794 797 801 801 803
741 741 741 740 727 720 709 708 707 708 707 704 698 691 686 687 685 681 693 698 698 698 697 695 704 712 722 725 732 735 742 746 752 759 768 774 779 785 789 792 794 797 800 800
737 735 742 742 721 719 712 701 703 707 707 704 700 691 685 685 686 685 685 696 699 704 710 706 708 714 719 723 732 742 748 748 752 759 766 771 776 782 787 790 792 795 796 798